Terminal Aerodrome Forecast
Issued by NWS

Home | Current Version | Previous Version | Text Only | Print | Product List | Glossary On
Versions: 1 2 3 4 5 6 7 8 9 10 11 12 13 14 15 16 17 18 19 20 21 22 23 24 25 26 27 28 29 30 31 32 33 34 35 36 37 38 39 40 41 42 43 44 45 46 47 48 49 50
000
FTUS44 KLIX 011700 RRA
TAFASD
TAF
KASD 011752Z 0118/0218 20009KT P6SM VCSH SCT035 BKN100
      TEMPO 0121/0124 5SM -SHRA BKN025
     FM020200 25008KT 5SM -SHRA OVC025
     FM020700 32011KT P6SM OVC020
     FM020900 33012G18KT P6SM BKN035
     FM021200 34013KT P6SM SCT100=

USA.gov is the U.S. government's official web portal to all federal, state and local government web resources and services.